When you browse on this site, cookies collect data to enhance your experience and personalize the content and advertising you see.
Visit our Privacy Policy to learn more. By continuing to use the site, you agree to this use of cookies and data.

Stündliche Wetter Atlanta

Heute, 8 Juli, Mittwoch

Zeit Temperatur Niederschläge Wind Luftdruck Luftfeuchtigkeit
00:00 +26°C° 0 mm 1 m/S 734 mmHg 79%
01:00 +25°C° 0 mm 1 m/S 733 mmHg 80%
02:00 +25°C° 0 mm 1 m/S 733 mmHg 81%
03:00 +25°C° 0 mm 1 m/S 733 mmHg 82%
04:00 +25°C° 0 mm 1 m/S 733 mmHg 80%
05:00 +25°C° 0 mm 1 m/S 734 mmHg 79%
06:00 +25°C° 0 mm 1 m/S 734 mmHg 78%
07:00 +27°C° 0 mm 1 m/S 734 mmHg 70%
08:00 +30°C° 0 mm 1 m/S 734 mmHg 61%
09:00 +30°C° 0 mm 0 m/S 735 mmHg 53%
10:00 +33°C° 0 mm 1 m/S 735 mmHg 48%
11:00 +34°C° 0 mm 1 m/S 734 mmHg 43%
12:00 +36°C° 0 mm 1 m/S 734 mmHg 38%
13:00 +35°C° 0.2 mm 1 m/S 734 mmHg 42%
14:00 +35°C° 0.2 mm 2 m/S 733 mmHg 46%
15:00 +34°C° 0.2 mm 3 m/S 733 mmHg 50%
16:00 +33°C° 0.3 mm 3 m/S 732 mmHg 54%
17:00 +31°C° 0.3 mm 3 m/S 732 mmHg 58%
18:00 +30°C° 0.3 mm 3 m/S 732 mmHg 61%
19:00 +29°C° 0.2 mm 3 m/S 732 mmHg 64%
20:00 +29°C° 0.2 mm 2 m/S 733 mmHg 67%
21:00 +28°C° 0.2 mm 2 m/S 733 mmHg 69%
22:00 +28°C° 0 mm 2 m/S 732 mmHg 71%
23:00 +27°C° 0 mm 2 m/S 732 mmHg 73%

Morgen, 9 Juli, Donnerstag

Zeit Temperatur Niederschläge Wind Luftdruck Luftfeuchtigkeit
00:00 +27°C° 0 mm 2 m/S 732 mmHg 75%
01:00 +26°C° 0.1 mm 2 m/S 732 mmHg 77%
02:00 +26°C° 0.1 mm 2 m/S 732 mmHg 80%
03:00 +25°C° 0.1 mm 1 m/S 732 mmHg 82%
04:00 +26°C° 0 mm 1 m/S 732 mmHg 81%
05:00 +26°C° 0 mm 1 m/S 732 mmHg 80%
06:00 +26°C° 0 mm 1 m/S 733 mmHg 80%
07:00 +28°C° 0 mm 1 m/S 733 mmHg 71%
08:00 +30°C° 0 mm 1 m/S 733 mmHg 62%
09:00 +32°C° 0 mm 1 m/S 733 mmHg 54%
10:00 +33°C° 0.5 mm 1 m/S 733 mmHg 50%
11:00 +35°C° 0.5 mm 1 m/S 733 mmHg 46%
12:00 +36°C° 0.5 mm 1 m/S 733 mmHg 43%
13:00 +35°C° 0.2 mm 1 m/S 732 mmHg 43%
14:00 +36°C° 0.2 mm 2 m/S 732 mmHg 44%
15:00 +35°C° 0.2 mm 2 m/S 731 mmHg 45%
16:00 +35°C° 0 mm 2 m/S 731 mmHg 47%
17:00 +34°C° 0 mm 2 m/S 732 mmHg 50%
18:00 +34°C° 0 mm 2 m/S 732 mmHg 52%
19:00 +32°C° 0.2 mm 1 m/S 732 mmHg 55%
20:00 +31°C° 0.2 mm 1 m/S 732 mmHg 58%
21:00 +30°C° 0.2 mm 1 m/S 732 mmHg 61%
22:00 +30°C° 0.1 mm 1 m/S 732 mmHg 63%
23:00 +29°C° 0.1 mm 1 m/S 732 mmHg 65%

übermorgen, 10 Juli, Freitag

Zeit Temperatur Niederschläge Wind Luftdruck Luftfeuchtigkeit
00:00 +29°C° 0.1 mm 1 m/S 732 mmHg 67%
01:00 +28°C° 0.2 mm 1 m/S 732 mmHg 69%
02:00 +28°C° 0.2 mm 1 m/S 732 mmHg 71%
03:00 +28°C° 0.2 mm 1 m/S 732 mmHg 73%
04:00 +28°C° 0.1 mm 1 m/S 732 mmHg 73%
05:00 +28°C° 0.1 mm 1 m/S 733 mmHg 73%
06:00 +28°C° 0.1 mm 1 m/S 733 mmHg 73%
07:00 +30°C° 0 mm 1 m/S 733 mmHg 66%
08:00 +32°C° 0 mm 1 m/S 733 mmHg 58%
09:00 +34°C° 0 mm 1 m/S 733 mmHg 50%
10:00 +35°C° 0.1 mm 2 m/S 733 mmHg 47%
11:00 +36°C° 0.1 mm 2 m/S 733 mmHg 45%
12:00 +37°C° 0.1 mm 3 m/S 733 mmHg 42%
13:00 +37°C° 0 mm 3 m/S 733 mmHg 44%
14:00 +36°C° 0 mm 4 m/S 732 mmHg 45%
15:00 +36°C° 0 mm 4 m/S 732 mmHg 46%
16:00 +35°C° 0.1 mm 4 m/S 732 mmHg 50%
17:00 +34°C° 0.1 mm 4 m/S 732 mmHg 54%
18:00 +33°C° 0.1 mm 4 m/S 732 mmHg 57%
19:00 +31°C° 0 mm 3 m/S 732 mmHg 61%
20:00 +31°C° 0 mm 3 m/S 732 mmHg 64%
21:00 +30°C° 0 mm 3 m/S 732 mmHg 67%
22:00 +30°C° 0.1 mm 3 m/S 732 mmHg 69%
23:00 +29°C° 0.1 mm 3 m/S 732 mmHg 71%

11 Juli, Samstag

Zeit Temperatur Niederschläge Wind Luftdruck Luftfeuchtigkeit
00:00 +29°C° 0.1 mm 3 m/S 732 mmHg 73%
01:00 +28°C° 0 mm 3 m/S 732 mmHg 73%
02:00 +28°C° 0 mm 3 m/S 731 mmHg 74%
03:00 +28°C° 0 mm 3 m/S 731 mmHg 75%
04:00 +27°C° 0 mm 3 m/S 732 mmHg 75%
05:00 +27°C° 0 mm 3 m/S 732 mmHg 75%
06:00 +27°C° 0 mm 3 m/S 732 mmHg 75%
07:00 +29°C° 0 mm 4 m/S 732 mmHg 63%
08:00 +32°C° 0 mm 4 m/S 733 mmHg 50%
09:00 +34°C° 0 mm 4 m/S 733 mmHg 38%
10:00 +35°C° 0 mm 5 m/S 733 mmHg 34%
11:00 +36°C° 0 mm 5 m/S 733 mmHg 30%
12:00 +38°C° 0 mm 6 m/S 732 mmHg 26%
13:00 +37°C° 0 mm 5 m/S 732 mmHg 26%
14:00 +39°C° 0 mm 5 m/S 732 mmHg 25%
15:00 +39°C° 0 mm 5 m/S 731 mmHg 25%
16:00 +36°C° 0 mm 4 m/S 731 mmHg 28%
17:00 +35°C° 0 mm 4 m/S 731 mmHg 31%
18:00 +34°C° 0 mm 4 m/S 731 mmHg 34%
19:00 +33°C° 0 mm 4 m/S 732 mmHg 38%
20:00 +31°C° 0 mm 3 m/S 732 mmHg 42%
21:00 +30°C° 0 mm 3 m/S 732 mmHg 45%
22:00 +29°C° 0 mm 3 m/S 732 mmHg 48%
23:00 +29°C° 0 mm 3 m/S 732 mmHg 50%

12 Juli, Sonntag

Zeit Temperatur Niederschläge Wind Luftdruck Luftfeuchtigkeit
00:00 +28°C° 0 mm 3 m/S 732 mmHg 52%
01:00 +27°C° 0 mm 2 m/S 732 mmHg 55%
02:00 +27°C° 0 mm 2 m/S 731 mmHg 58%
03:00 +26°C° 0 mm 2 m/S 731 mmHg 61%
04:00 +26°C° 0 mm 2 m/S 731 mmHg 61%
05:00 +26°C° 0 mm 2 m/S 732 mmHg 61%
06:00 +26°C° 0 mm 2 m/S 732 mmHg 60%
07:00 +28°C° 0 mm 2 m/S 732 mmHg 54%
08:00 +30°C° 0 mm 3 m/S 732 mmHg 47%
09:00 +33°C° 0 mm 3 m/S 732 mmHg 40%
10:00 +34°C° 0 mm 3 m/S 732 mmHg 36%
11:00 +36°C° 0 mm 3 m/S 732 mmHg 32%
12:00 +37°C° 0 mm 4 m/S 732 mmHg 28%
13:00 +38°C° 0 mm 4 m/S 731 mmHg 29%
14:00 +38°C° 0 mm 4 m/S 731 mmHg 30%
15:00 +38°C° 0 mm 4 m/S 731 mmHg 32%
16:00 +37°C° 0 mm 4 m/S 731 mmHg 37%
17:00 +36°C° 0 mm 3 m/S 730 mmHg 42%
18:00 +35°C° 0 mm 3 m/S 730 mmHg 47%
19:00 +34°C° 0.1 mm 3 m/S 731 mmHg 51%
20:00 +33°C° 0.1 mm 3 m/S 731 mmHg 54%
21:00 +31°C° 0.1 mm 2 m/S 732 mmHg 58%
22:00 +30°C° 0 mm 2 m/S 732 mmHg 61%
23:00 +30°C° 0 mm 2 m/S 732 mmHg 64%

13 Juli, Montag

Zeit Temperatur Niederschläge Wind Luftdruck Luftfeuchtigkeit
00:00 +29°C° 0 mm 2 m/S 732 mmHg 68%
01:00 +29°C° 0 mm 2 m/S 732 mmHg 69%
02:00 +28°C° 0 mm 2 m/S 732 mmHg 70%
03:00 +28°C° 0 mm 2 m/S 732 mmHg 72%
04:00 +28°C° 0 mm 2 m/S 732 mmHg 72%
05:00 +28°C° 0 mm 2 m/S 732 mmHg 72%
06:00 +28°C° 0 mm 2 m/S 732 mmHg 72%
07:00 +30°C° 0.1 mm 3 m/S 733 mmHg 66%
08:00 +31°C° 0.1 mm 3 m/S 733 mmHg 60%
09:00 +33°C° 0.1 mm 4 m/S 733 mmHg 54%
10:00 +34°C° 0 mm 4 m/S 733 mmHg 52%
11:00 +34°C° 0 mm 4 m/S 733 mmHg 49%
12:00 +35°C° 0 mm 4 m/S 733 mmHg 46%
13:00 +36°C° 0 mm 4 m/S 733 mmHg 43%
14:00 +37°C° 0 mm 4 m/S 732 mmHg 40%
15:00 +39°C° 0 mm 5 m/S 732 mmHg 37%
16:00 +36°C° 0 mm 4 m/S 732 mmHg 41%
17:00 +35°C° 0 mm 4 m/S 732 mmHg 45%
18:00 +34°C° 0 mm 3 m/S 732 mmHg 49%
19:00 +33°C° 0 mm 3 m/S 732 mmHg 52%
20:00 +33°C° 0 mm 3 m/S 732 mmHg 55%
21:00 +31°C° 0 mm 2 m/S 733 mmHg 58%
22:00 +30°C° 0 mm 2 m/S 733 mmHg 61%
23:00 +30°C° 0 mm 2 m/S 733 mmHg 64%
Mehr zeigen